Regional Weather Roundup
Issued by NWS Cleveland, OH

Home | Current Version | Previous Version | Text Only | Print | Product List | Glossary Off
Versions: 1 2 3 4 5 6 7 8 9 10 11 12 13 14 15 16 17 18 19 20 21 22 23 24 25 26 27 28 29 30 31 32 33 34 35 36 37 38 39 40 41 42 43 44 45 46 47 48 49 50

000
ASUS41 KCLE 261510
RWRCLE
OHIO REGIONAL WEATHER ROUNDUP
NATIONAL WEATHER SERVICE WILMINGTON, OH
1000 AM EST WED NOV 26 2014

NOTE: "FAIR" INDICATES FEW OR NO CLOUDS BELOW 12,000 FEET WITH NO
SIGNIFICANT WEATHER AND/OR OBSTRUCTIONS TO VISIBILITY.

OHZ001>008-015>018-024>027-034-035-043-044-261600-
   NORTHWEST OHIO

CITY           SKY/WX    TMP DP  RH WIND       PRES   REMARKS
DEFIANCE       NOT AVBL
FINDLAY        CLOUDY    31  22  69 N6        30.14S WCI  25
TOLEDO EXPRESS CLOUDY    28  22  78 CALM      30.17S
TOLEDO METCALF CLOUDY    30  23  75 NW3       30.17F
LIMA           CLOUDY    30  21  69 E6        30.14S WCI  24
$$

OHZ009>014-019>023-028>033-038-089-261600-
   NORTHEAST OHIO

CITY           SKY/WX    TMP DP  RH WIND       PRES   REMARKS
CLE-HOPKINS    CLOUDY    34  25  69 E7        30.14F WCI  28
CLE-LAKEFRONT  CLOUDY    35  25  66 NE5       30.12F
CUY CO. ARPT   CLOUDY    36  28  75 NE6       30.12F
LORAIN-ELYRIA  CLOUDY    33  26  75 CALM      30.12F
ASHTABULA      CLOUDY    33  25  72 N3        30.11F
AKRON-CANTON   CLOUDY    33  25  72 NE7       30.08S WCI  27
WOOSTER        CLOUDY    32  25  75 N6        30.09S WCI  26
MANSFIELD      CLOUDY    31  24  75 N6        30.09F WCI  25
YOUNGSTOWN     CLOUDY    32  26  78 N5        30.09R WCI  27
$$

OHZ042-051>053-060>062-070>072-077>081-261600-
  SOUTHWEST OHIO

CITY           SKY/WX    TMP DP  RH WIND       PRES   REMARKS
CINC-COVINGTON CLOUDY    31  25  78 NE6       30.13R WCI  25
CINC-LUNKEN    CLOUDY    32  27  81 NE7       30.17R WCI  26
HAMILTON       CLOUDY    32  26  78 NE7       30.16R WCI  26
DAYTON         CLOUDY    30  23  75 N3        30.14S
WRIGHT-PAT AFB CLOUDY    30  24  79 N6        30.14R WCI  24
DAYTON GENERAL CLOUDY    30  26  85 N6        30.13R WCI  24
WILMINGTON     CLOUDY    30  25  81 N10       30.12R WCI  21
$$

OHZ036-037-039>041-045>050-054>059-063>069-073>076-082>088-261600-
  CENTRAL AND SOUTHEAST OHIO

CITY           SKY/WX    TMP DP  RH WIND       PRES   REMARKS
COLUMBUS       CLOUDY    32  26  78 N8        30.11R WCI  25
OSU AIRPORT    CLOUDY    31  25  78 N6        30.11R WCI  25
BOLTON FIELD   CLOUDY    30  27  86 N8        30.12R WCI  23
RICKENBACK AFB CLOUDY    32  26  80 N9        30.11S WCI  24
NEWARK         PTSUNNY   34  26  72 N7        30.09R WCI  28
MARION         CLOUDY    31  23  72 N5        30.12S WCI  26
LANCASTER      MOSUNNY   35  29  78 N8        30.11R WCI  29
ZANESVILLE     PTSUNNY   33  26  75 NE8       30.08S WCI  26
NEW PHILLY     CLOUDY    33  26  75 NE3       30.09S
$$



USA.gov is the U.S. government's official web portal to all federal, state and local government web resources and services.